Location: Eastlake (historical)
(39.0077°N, 122.6678°W)
Time: 18:30:26
(UTC+00:00)

ATLAS 2AS CENTAUR R/B - Pass Details

Date: 25 November 2020
Orbit: 943 x 1268 km, 63.7° (Epoch: 21 January)

Event Time Altitude Azimuth Distance (km) Brightness Sun altitude
Rises 12:24:17 0° 189° (S) 4,145 5.7 -30.8°
Reaches altitude 10° 12:27:08 10° 184° (S) 3,209 5.2 -30.3°
Maximum altitude 12:34:30 46° 114° (ESE) 1,642 3.9 -28.9°
Drops below altitude 10° 12:41:56 10° 44° (NE) 3,248 5.7 -27.4°
Sets 12:44:50 0° 39° (NE) 4,200 6.2 -26.9°
